EW2175 Weather Reports


time (UTC)temp
C
wind
direction
speed
KPH
gust
KPH
rain 1hr
cm
rain 24hr
cm
rain mn
cm
humidity
%
barometer
mb
20260901080138 21 252 0.0 8.0 0.00 0.03 0.00 68 1020.3
20260901074542 20 255 0.0 6.4 0.00 0.03 0.00 69 1020.3
20260901073038 19 245 0.0 6.4 0.00 0.03 0.00 72 1020.2
20260901071538 18 290 0.0 4.8 0.00 0.03 0.00 74 1020.2
20260901070035 18 105 0.0 0.0 0.00 0.03 0.00 75 1020.2
20260901064529 17 106 0.0 0.0 0.00 0.03 0.00 76 1020.3
20260901063027 17 106 0.0 0.0 0.00 0.03 0.00 77 1020.2
20260901061525 17 106 0.0 0.0 0.00 0.03 0.00 78 1020.1
20260901060023 16 106 0.0 0.0 0.00 0.03 0.00 80 1020.1
20260901054521 16 106 0.0 0.0 0.00 0.03 0.00 80 1019.8
20260901053018 16 106 0.0 0.0 0.00 0.03 0.00 79 1019.7
20260901051515 16 106 0.0 0.0 0.00 0.03 0.00 78 1019.7
20260901050013 16 106 0.0 0.0 0.00 0.03 0.00 79 1019.6
20260901044536 16 106 0.0 0.0 0.00 0.03 0.00 78 1019.7
20260901043035 16 106 0.0 0.0 0.00 0.03 0.00 78 1019.5
20260901041534 16 106 0.0 0.0 0.00 0.03 0.00 78 1019.4
20260901040036 16 106 0.0 0.0 0.00 0.03 0.00 77 1019.4
20260901034530 16 106 0.0 0.0 0.00 0.03 0.00 77 1019.3
20260901033029 16 109 0.0 0.0 0.00 0.03 0.00 76 1019.3
20260901031527 17 40 0.0 0.0 0.00 0.03 0.00 76 1019.4
20260901030026 17 40 0.0 0.0 0.00 0.03 0.00 75 1019.4
20260901024531 17 40 0.0 0.0 0.00 0.03 0.00 75 1019.4
20260901023027 17 40 0.0 0.0 0.00 0.03 0.00 76 1019.4
20260901021528 17 40 0.0 0.0 0.00 0.03 0.00 76 1019.4
20260901020021 17 40 0.0 0.0 0.00 0.03 0.00 75 1019.5
20260901014519 17 40 0.0 0.0 0.00 0.03 0.00 75 1019.4
20260901013019 17 40 0.0 6.4 0.00 0.03 0.00 71 1019.4
20260901011525 17 350 0.0 4.8 0.00 0.03 0.00 71 1019.2
20260901010016 17 92 0.0 4.8 0.00 0.03 0.00 70 1019.2
20260901004516 17 102 0.0 9.7 0.00 0.05 0.00 71 1018.9
20260901003014 17 96 1.6 6.4 0.00 0.05 0.00 71 1019.0
20260901001514 17 96 0.0 6.4 0.00 0.05 0.00 71 1019.0
20260901000018 17 100 0.0 6.4 0.00 0.05 0.00 71 1019.0
20260831234512 17 95 0.0 6.4 0.00 0.18 0.00 72 1019.1
20260831233011 17 78 0.0 3.2 0.00 0.18 0.00 72 1019.0
20260831231519 17 92 0.0 1.6 0.00 0.18 0.00 71 1019.0
20260831230010 17 76 0.0 0.0 0.00 0.18 0.00 71 1019.0
20260831224524 17 161 0.0 0.0 0.00 0.61 0.00 70 1019.2
20260831223006 18 192 0.0 0.0 0.00 0.61 0.00 69 1019.3
20260831221503 18 192 0.0 0.0 0.00 0.61 0.00 68 1019.2
20260831220001 18 192 0.0 0.0 0.00 0.61 0.00 67 1019.2
20260831214605 18 192 0.0 0.0 0.00 0.61 0.61 66 1019.2
20260831213100 18 192 0.0 4.8 0.00 0.61 0.61 66 1019.3
20260831211608 19 273 0.0 0.0 0.00 0.61 0.61 65 1019.2
20260831204603 19 180 0.0 4.8 0.00 0.61 0.61 64 1019.1
20260831203057 20 205 0.0 4.8 0.00 0.61 0.61 63 1019.0
20260831201558 20 207 0.0 3.2 0.00 0.61 0.61 61 1018.8
20260831200052 20 213 0.0 6.4 0.00 0.61 0.61 60 1018.4
20260831194558 21 234 1.6 11.3 0.00 0.61 0.61 59 1018.2
20260831193057 21 231 1.6 11.3 0.00 0.61 0.61 57 1018.0
20260831191551 21 191 4.8 16.1 0.00 0.61 0.61 56 1017.9
20260831190050 21 255 3.2 16.1 0.00 0.61 0.61 55 1017.9
20260831184546 21 214 0.0 0.0 0.00 0.61 0.61 57 1017.5
20260831183043 22 161 0.0 0.0 0.00 0.61 0.61 55 1017.3
20260831181542 22 240 0.0 9.7 0.00 0.61 0.61 54 1017.1
20260831180045 22 217 0.0 12.9 0.00 0.61 0.61 52 1016.9
20260831174544 23 269 3.2 14.5 0.00 0.61 0.61 50 1016.9
20260831173046 23 238 3.2 12.9 0.00 0.61 0.61 48 1016.9
20260831171539 23 241 0.0 8.0 0.00 0.61 0.61 50 1016.9
20260831170142 23 271 0.0 12.9 0.00 0.61 0.61 51 1017.1
20260831164539 23 326 3.2 9.7 0.00 0.61 0.61 53 1017.1
20260831163035 23 242 4.8 20.9 0.00 0.61 0.61 52 1017.1
20260831161535 24 239 9.7 30.6 0.00 0.61 0.61 45 1016.9
20260831160040 24 223 14.5 32.2 0.00 0.61 0.61 43 1016.6
20260831154559 25 242 12.9 35.4 0.00 0.61 0.61 41 1016.3
20260831153031 25 258 17.7 38.6 0.00 0.61 0.61 42 1016.1
20260831151535 25 256 12.9 30.6 0.00 0.61 0.61 46 1015.7
20260831150029 25 161 11.3 33.8 0.00 0.61 0.61 45 1015.8
20260831144529 26 238 16.1 30.6 0.00 0.61 0.61 43 1015.8
20260831143026 26 205 16.1 30.6 0.00 0.61 0.61 44 1015.7
20260831141522 25 168 8.0 29.0 0.00 0.61 0.61 46 1015.6
20260831140023 25 195 12.9 30.6 0.00 0.61 0.61 46 1015.6
20260831134523 25 277 12.9 35.4 0.00 0.61 0.61 45 1015.7
20260831133023 25 186 11.3 37.0 0.00 0.61 0.61 46 1015.8
20260831131520 25 59 14.5 30.6 0.00 0.61 0.61 46 1015.7
20260831130016 25 200 4.8 30.6 0.00 0.61 0.61 47 1015.7
20260831124526 25 232 17.7 35.4 0.00 0.61 0.61 47 1015.8
20260831123012 24 218 14.5 35.4 0.00 0.61 0.61 49 1015.8
20260831121510 24 144 8.0 30.6 0.00 0.61 0.61 50 1015.8
20260831120011 24 173 12.9 29.0 0.00 0.61 0.61 49 1016.0
20260831114506 24 165 16.1 30.6 0.00 0.61 0.61 49 1016.1
20260831113003 23 168 9.7 37.0 0.00 0.61 0.61 52 1016.4
20260831111503 23 277 19.3 30.6 0.00 0.61 0.61 51 1016.6
20260831110105 22 196 6.4 24.1 0.00 0.61 0.61 56 1016.5
20260831104556 22 219 11.3 32.2 0.00 0.61 0.61 58 1016.5
20260831103055 22 185 11.3 29.0 0.00 0.61 0.61 57 1016.4
20260831101655 22 182 11.3 37.0 0.00 0.61 0.61 56 1016.5
20260831100104 22 187 12.9 29.0 0.00 0.61 0.61 58 1016.5
20260831094559 22 198 9.7 24.1 0.00 0.61 0.61 58 1016.7
20260831093050 21 196 9.7 20.9 0.00 0.61 0.61 59 1016.7
20260831091544 21 195 9.7 27.4 0.00 0.61 0.61 63 1016.7
20260831090045 21 160 11.3 27.4 0.03 0.61 0.61 66 1016.6
20260831084547 20 155 11.3 33.8 0.03 0.61 0.61 68 1016.6
20260831083140 20 155 8.0 32.2 0.03 0.61 0.61 70 1016.5
20260831081539 20 165 9.7 25.7 0.03 0.61 0.61 71 1016.3